Location: Limerick
(52.6800°N, 8.6400°W)
Time: 20:27:33
(UTC+01:00)

Amateur Radio Satellites - All Passes

Search period start: 26 April 2015 19:57
Search period end: 27 April 2015 19:57
Location: Limerick, 52.6800°N, 8.6400°W

Satellite Date Start Highest point End Downlink Frequencies (MHz)
Time Altitude Azimuth
STRAND 1 26 Apr 19:59:13 20:03:41 31° 93° (E) 20:08:13 437.568
GOMX 1 26 Apr 20:03:31 20:07:02 25° 61° (ENE) 20:10:48 467.674
HO-68 26 Apr 20:04:51 20:11:30 43° 58° (ENE) 20:18:15 435.675
COMPASS 1 26 Apr 20:06:16 20:08:46 16° 57° (ENE) 20:11:23 437.405
M-CUBED/EXP-1 PRIME 26 Apr 20:13:13 20:17:33 59° 107° (ESE) 20:21:29 437.505
BRITE-PL 26 Apr 20:19:44 20:23:46 47° 69° (ENE) 20:28:03 437.365/2234.400
Oscar 11 26 Apr 20:27:28 20:29:20 13° 54° (NE) 20:31:22 145.826/435.025
SEEDS 26 Apr 20:31:42 20:35:22 29° 64° (ENE) 20:39:06 437.485
DOVE 4 26 Apr 20:35:26 20:39:20 34° 64° (ENE) 20:43:31 437.250
CUTE-I 26 Apr 20:38:30 20:41:39 15° 276° (W) 20:44:34 437.470
CANX-2 26 Apr 20:41:07 20:45:11 43° 68° (ENE) 20:49:19 2200.000
CUSAT 1 26 Apr 20:46:29 20:48:18 12° 321° (NW) 20:50:04 437.405
AAUSAT CUBESAT 2 26 Apr 20:46:45 20:50:23 29° 65° (ENE) 20:54:05 437.432
Cubesat XI-IV 26 Apr 20:49:25 20:51:46 12° 278° (W) 20:53:51 437.490
CUTE 1.7 + AOD 2 26 Apr 20:50:02 20:54:10 47° 69° (ENE) 20:58:22 437.475
YUBILEINY 26 Apr 20:50:53 20:57:59 27° 53° (NE) 21:05:12 435.215
AUBIESAT-1 26 Apr 20:54:52 20:59:10 64° 296° (WNW) 21:03:06 437.475
DX 1 26 Apr 21:03:04 21:04:31 12° 52° (NE) 21:06:09 434.975-435.025
CUBEBUG 2 26 Apr 21:07:05 21:10:35 23° 60° (ENE) 21:14:16 437.445
GONETS M04 26 Apr 21:08:06 21:12:58 15° 324° (NW) 21:17:32
Cosmos 2499 26 Apr 21:10:39 21:18:56 41° 296° (WNW) 21:26:47 435.465 / 435.565
CUBESAT XI-V 26 Apr 21:10:47 21:15:02 36° 294° (WNW) 21:19:14 437.345
CINEMA 3 26 Apr 21:12:59 21:17:08 41° 67° (ENE) 21:21:33 145.822/145.860
PHONESAT 2.4 26 Apr 21:13:22 21:14:40 12° 186° (S) 21:15:57 2401.200-2431.200
PRISM 26 Apr 21:20:46 21:24:39 40° 293° (WNW) 21:28:29 437.425
RS-15 26 Apr 21:24:58 21:35:51 51° 20° (NNE) 21:47:16 29.354- 29.394
UWE-3 26 Apr 21:30:52 21:34:45 30° 63° (ENE) 21:38:46 435.000/436.395/437.385
SO-50 26 Apr 21:36:14 21:40:31 29° 241° (WSW) 21:44:43 436.795
FUNcube-1 26 Apr 21:38:07 21:41:53 29° 63° (ENE) 21:45:48 145.935
STRAND 1 26 Apr 21:38:13 21:43:07 48° 294° (WNW) 21:48:01 437.568
COMPASS 1 26 Apr 21:39:40 21:43:56 84° 256° (WSW) 21:48:13 437.405
GOMX 1 26 Apr 21:40:50 21:44:58 47° 262° (W) 21:49:22 467.674
UKube-1 26 Apr 21:42:39 21:45:57 22° 60° (ENE) 21:49:21 .
M-CUBED/EXP-1 PRIME 26 Apr 21:48:34 21:52:02 23° 308° (NW) 21:55:15 437.505
DELFI C3 26 Apr 21:51:12 21:55:06 45° 69° (ENE) 21:59:02 145.870
HO-68 26 Apr 21:52:08 21:59:10 54° 260° (W) 22:06:14 435.675
HUMSAT D 26 Apr 21:52:11 21:55:25 22° 60° (ENE) 21:58:46 437.325/437.525
BRITE-PL 26 Apr 21:59:17 22:02:41 23° 270° (W) 22:06:07 437.365/2234.400
Oscar 11 26 Apr 22:00:28 22:04:49 72° 73° (ENE) 22:09:13 145.826/435.025
ZACube-1 26 Apr 22:03:20 22:07:34 47° 68° (ENE) 22:11:55 437.345
SEEDS 26 Apr 22:07:01 22:11:04 40° 263° (W) 22:15:08 437.485
VELOX 1 26 Apr 22:11:39 22:15:01 22° 60° (ENE) 22:18:28 145.980
DOVE 4 26 Apr 22:13:08 22:17:08 35° 265° (W) 22:21:21 437.250
CUBEBUG 1 26 Apr 22:15:43 22:17:51 14° 55° (NE) 22:20:07 437.445
CANX-2 26 Apr 22:17:37 22:21:18 26° 268° (W) 22:24:57 2200.000
AAUSAT CUBESAT 2 26 Apr 22:21:57 22:25:56 38° 264° (W) 22:29:54 437.432
CUTE 1.7 + AOD 2 26 Apr 22:26:49 22:30:21 24° 269° (W) 22:33:51 437.475
AISAT 26 Apr 22:29:19 22:33:10 31° 63° (ENE) 22:37:05 437.250
AUBIESAT-1 26 Apr 22:31:05 22:33:09 13° 316° (NW) 22:35:01 437.475
50 SAT 26 Apr 22:33:52 22:37:25 31° 65° (ENE) 22:41:03 437.505
DX 1 26 Apr 22:35:44 22:40:01 64° 71° (ENE) 22:44:20 434.975-435.025
CUBEBUG 2 26 Apr 22:42:34 22:46:57 57° 260° (W) 22:51:30 437.445
Cosmos 2491 26 Apr 22:45:11 22:52:53 38° 84° (E) 23:00:46 435.465 / 435.565
YUBILEINY 26 Apr 22:47:29 22:56:19 86° 78° (ENE) 23:05:04 435.215
CINEMA 3 26 Apr 22:50:35 22:54:31 30° 268° (W) 22:58:34 145.822/145.860
Cosmos 2504 26 Apr 22:50:58 22:55:48 17° 41° (NE) 23:00:44 435.465 / 435.565
UWE-3 26 Apr 23:06:58 23:11:11 41° 264° (W) 23:15:30 435.000/436.395/437.385
O/OREOS (USA 219) 26 Apr 23:09:03 23:13:24 44° 111° (ESE) 23:17:46 437.305
Cosmos 2499 26 Apr 23:11:02 23:15:02 13° 324° (NW) 23:18:37 435.465 / 435.565
ESTCUBE 1 26 Apr 23:11:11 23:15:25 42° 67° (ENE) 23:19:41 437.505/2401.250
FUNcube-1 26 Apr 23:13:53 23:18:05 43° 263° (W) 23:22:24 145.935
UKube-1 26 Apr 23:17:33 23:21:48 56° 259° (WSW) 23:26:05 .
COMPASS 1 26 Apr 23:18:47 23:20:23 12° 276° (W) 23:21:48 437.405
STRAND 1 26 Apr 23:19:47 23:21:17 11° 314° (NW) 23:22:36 437.568
POPSAT HIP 1 26 Apr 23:22:21 23:23:27 11° 83° (E) 23:24:47 437.405
HUMSAT D 26 Apr 23:26:39 23:30:52 57° 260° (W) 23:35:08 437.325/437.525
TIGRISAT 26 Apr 23:27:07 23:30:58 25° 91° (E) 23:34:50 435.000
DELFI C3 26 Apr 23:27:10 23:30:28 23° 268° (W) 23:33:43 145.870
SPROUT 26 Apr 23:31:17 23:34:22 20° 60° (ENE) 23:37:34 437.525
UNISAT 6 26 Apr 23:31:46 23:35:48 27° 92° (E) 23:39:50 437.425
RS-15 26 Apr 23:38:04 23:49:31 87° 228° (SW) 00:01:30 29.354- 29.394
Oscar 11 26 Apr 23:38:44 23:41:34 16° 273° (W) 23:44:17 145.826/435.025
ZACube-1 26 Apr 23:40:27 23:44:10 25° 269° (W) 23:47:54 437.345
BUGSAT 1 26 Apr 23:41:26 23:42:50 12° 85° (E) 23:44:26 437.445
HO-68 26 Apr 23:46:11 23:48:51 12° 283° (WNW) 23:51:03 435.675
VELOX 1 26 Apr 23:46:56 23:51:16 58° 259° (WSW) 23:55:38 145.980
CUBEBUG 1 26 Apr 23:49:16 23:53:35 80° 74° (ENE) 23:57:56 437.445
DUCHIFAT 1 26 Apr 23:50:46 23:53:54 20° 90° (E) 23:57:08 145.980
POLYITAN 1 26 Apr 23:50:56 23:54:11 21° 90° (E) 23:57:32 437.675
BEESAT 27 Apr 00:03:47 00:04:07 10° 47° (NE) 00:04:37 436.000
SWISSCUBE 27 Apr 00:05:25 00:06:43 11° 49° (NE) 00:08:12 437.505
AISAT 27 Apr 00:05:34 00:09:42 38° 263° (W) 00:13:51 437.250
QB50P1 27 Apr 00:08:33 00:12:18 29° 94° (E) 00:16:05 145.935-145.965
50 SAT 27 Apr 00:08:33 00:12:13 32° 265° (W) 00:15:54 437.505
ANTELSAT 27 Apr 00:13:32 00:18:15 62° 101° (E) 00:22:54 437.575/2403.000
DX 1 27 Apr 00:13:41 00:16:44 18° 271° (W) 00:19:42 434.975-435.025
AIST 1 27 Apr 00:22:26 00:24:39 14° 83° (E) 00:27:01
TISAT 1 27 Apr 00:31:21 00:35:25 53° 70° (ENE) 00:39:34 437.305
QB50P2 27 Apr 00:34:47 00:39:00 51° 100° (E) 00:43:13 145.880/145.840
Cosmos 2491 27 Apr 00:40:41 00:49:23 65° 287° (WNW) 00:58:09 435.465 / 435.565
Cosmos 2504 27 Apr 00:43:37 00:51:40 55° 69° (ENE) 00:59:10 435.465 / 435.565
YUBILEINY 27 Apr 00:45:13 00:52:14 27° 282° (WNW) 00:58:57 435.215
ESTCUBE 1 27 Apr 00:48:30 00:52:26 29° 266° (W) 00:56:22 437.505/2401.250
O/OREOS (USA 219) 27 Apr 00:48:50 00:52:59 32° 312° (NW) 00:57:06 437.305
NANOSAT C BR1 27 Apr 00:52:09 00:56:28 73° 103° (ESE) 01:00:45 145.865
POPSAT HIP 1 27 Apr 00:55:50 01:00:10 79° 103° (ESE) 01:04:29 437.405
TIGRISAT 27 Apr 01:03:24 01:08:02 53° 291° (WNW) 01:12:35 435.000
SPROUT 27 Apr 01:05:51 01:10:06 62° 258° (WSW) 01:14:23 437.525
ITUPSAT 1 27 Apr 01:06:56 01:10:58 28° 61° (ENE) 01:15:03 437.325
UNISAT 6 27 Apr 01:08:15 01:12:49 48° 292° (WNW) 01:17:18 437.425
GONETS M04 27 Apr 01:14:11 01:17:47 13° 32° (NNE) 01:21:45
BUGSAT 1 27 Apr 01:14:51 01:19:01 87° 101° (E) 01:23:13 437.445
DUCHIFAT 1 27 Apr 01:25:53 01:30:06 57° 290° (WNW) 01:34:18 145.980
POLYITAN 1 27 Apr 01:26:13 01:30:27 55° 290° (WNW) 01:34:41 437.675
CUBEBUG 1 27 Apr 01:28:07 01:30:35 14° 274° (W) 01:32:55 437.445
BEESAT 27 Apr 01:36:23 01:40:57 47° 67° (ENE) 01:45:34 436.000
SWISSCUBE 27 Apr 01:39:01 01:43:39 53° 68° (ENE) 01:48:19 437.505
QB50P1 27 Apr 01:44:16 01:48:17 38° 293° (WNW) 01:52:16 145.935-145.965
ANTELSAT 27 Apr 01:50:54 01:54:42 24° 300° (WNW) 01:58:21 437.575/2403.000
RS-15 27 Apr 01:51:03 02:00:46 32° 253° (WSW) 02:10:30 29.354- 29.394
Oscar 19 27 Apr 01:51:40 01:54:48 16° 85° (E) 01:58:06 437.125/150
AIST 1 27 Apr 01:57:28 02:01:46 76° 282° (WNW) 02:06:05
CUSAT 1 27 Apr 02:04:29 02:07:55 14° 43° (NE) 02:11:53 437.405
STARS 27 Apr 02:07:41 02:10:19 16° 56° (NE) 02:13:06 437.465
TISAT 1 27 Apr 02:08:21 02:11:33 21° 270° (W) 02:14:42 437.305
QB50P2 27 Apr 02:11:10 02:14:39 24° 299° (WNW) 02:18:03 145.880/145.840
NANOSAT C BR1 27 Apr 02:28:55 02:31:52 18° 302° (WNW) 02:34:44 145.865
ITAMSAT 1 27 Apr 02:30:05 02:31:34 11° 81° (E) 02:33:19 435.822/435.867
POPSAT HIP 1 27 Apr 02:32:44 02:35:34 17° 303° (WNW) 02:38:17 437.405
O/OREOS (USA 219) 27 Apr 02:33:12 02:33:54 10° 336° (NNW) 02:34:30 437.305
Cosmos 2504 27 Apr 02:37:25 02:44:56 41° 274° (W) 02:51:52 435.465 / 435.565
Cosmos 2491 27 Apr 02:42:10 02:48:29 20° 315° (NW) 02:54:33 435.465 / 435.565
TIGRISAT 27 Apr 02:42:25 02:43:50 11° 310° (NW) 02:45:04 435.000
ITUPSAT 1 27 Apr 02:44:00 02:48:40 50° 260° (W) 02:53:21 437.325
UNISAT 6 27 Apr 02:48:18 02:48:35 10° 312° (NW) 02:48:41 437.425
KKS-1 27 Apr 02:50:14 02:54:30 48° 68° (ENE) 02:58:49 437.445
DANDE 27 Apr 02:50:35 02:55:26 20° 52° (NE) 03:01:09 436.750
BUGSAT 1 27 Apr 02:51:35 02:53:59 15° 303° (WNW) 02:56:17 437.445
DUCHIFAT 1 27 Apr 03:04:25 03:05:06 10° 308° (NW) 03:05:37 145.980
Gurwin Techsat 1B 27 Apr 03:04:50 03:08:43 21° 88° (E) 03:12:43 435.225
POLYITAN 1 27 Apr 03:05:07 03:05:32 10° 309° (NW) 03:05:46 437.675
GONETS M04 27 Apr 03:09:55 03:18:05 39° 62° (ENE) 03:26:17
Cosmos 2499 27 Apr 03:10:49 03:11:48 10° 29° (NNE) 03:13:06 435.465 / 435.565
BEESAT 3 27 Apr 03:11:13 03:14:27 23° 118° (ESE) 03:17:45 437.485
BEESAT 2 27 Apr 03:14:17 03:17:23 21° 117° (ESE) 03:20:36 435.950
BEESAT 27 Apr 03:14:52 03:19:02 28° 267° (W) 03:23:09 436.000
SWISSCUBE 27 Apr 03:17:50 03:21:49 25° 268° (W) 03:25:46 437.505
MOZHAYETS 4 27 Apr 03:28:00 03:30:14 14° 53° (NE) 03:32:37
Oscar 19 27 Apr 03:29:44 03:34:59 89° 92° (E) 03:40:13 437.125/150
AIST 1 27 Apr 03:38:38 03:40:19 12° 304° (NW) 03:41:50
STARS 27 Apr 03:41:48 03:46:13 88° 255° (WSW) 03:50:41 437.465
CUSAT 1 27 Apr 03:45:42 03:52:33 44° 66° (ENE) 04:00:25 437.405
ITAMSAT 1 27 Apr 04:07:02 04:12:13 66° 102° (ESE) 04:17:23 435.822/435.867
JAS-2 27 Apr 04:21:19 04:25:42 19° 81° (E) 04:29:56 435.910
AIST 2 27 Apr 04:21:29 04:25:15 32° 121° (ESE) 04:29:06 435.215
KKS-1 27 Apr 04:27:42 04:31:24 25° 268° (W) 04:35:04 437.445
DANDE 27 Apr 04:32:55 04:39:57 65° 72° (ENE) 04:48:20 436.750
AUBIESAT-1 27 Apr 04:40:57 04:43:30 15° 46° (NE) 04:46:09 437.475
Gurwin Techsat 1B 27 Apr 04:44:00 04:49:20 75° 289° (WNW) 04:54:39 435.225
BEESAT 3 27 Apr 04:48:04 04:52:09 62° 317° (NW) 04:56:17 437.485
BEESAT 2 27 Apr 04:51:01 04:55:09 67° 316° (NW) 04:59:19 435.950
HORYU 2 27 Apr 04:57:00 05:01:16 39° 98° (E) 05:05:30 437.375
Cosmos 2499 27 Apr 05:01:19 05:08:22 33° 59° (ENE) 05:15:03 435.465 / 435.565
MOZHAYETS 4 27 Apr 05:02:06 05:06:44 72° 73° (ENE) 05:11:23
GONETS M04 27 Apr 05:06:49 05:15:36 65° 266° (W) 05:24:15
CUBESAT XI-V 27 Apr 05:08:24 05:10:15 13° 52° (NE) 05:12:16 437.345
Oscar 19 27 Apr 05:10:02 05:13:45 20° 306° (NW) 05:17:21 437.125/150
AO-7 27 Apr 05:10:59 05:18:42 41° 96° (E) 05:26:30 29.400- 29.500
STARS 27 Apr 05:21:21 05:23:27 13° 275° (W) 05:25:22 437.465
CUSAT 1 27 Apr 05:28:23 05:35:34 57° 264° (W) 05:43:37 437.405
M-CUBED/EXP-1 PRIME 27 Apr 05:32:08 05:36:29 34° 58° (ENE) 05:40:48 437.505
STRAND 1 27 Apr 05:44:20 05:47:26 17° 52° (NE) 05:50:42 437.568
ITAMSAT 1 27 Apr 05:47:09 05:51:23 25° 302° (WNW) 05:55:30 435.822/435.867
O/OREOS (USA 219) 27 Apr 05:55:50 05:57:23 12° 27° (NNE) 05:59:03 437.305
AIST 2 27 Apr 05:59:32 06:03:43 50° 321° (NW) 06:07:56 435.215
JAS-2 27 Apr 06:05:21 06:12:01 90° 296° (WNW) 06:17:51 435.910
AUBIESAT-1 27 Apr 06:12:47 06:17:33 63° 64° (ENE) 06:22:14 437.475
DANDE 27 Apr 06:16:31 06:23:04 37° 269° (W) 06:30:29 436.750
Gurwin Techsat 1B 27 Apr 06:25:12 06:28:34 17° 308° (NW) 06:31:47 435.225
BEESAT 3 27 Apr 06:27:44 06:30:55 21° 340° (NNW) 06:34:04 437.485
BEESAT 2 27 Apr 06:30:41 06:33:58 21° 339° (NNW) 06:37:13 435.950
HORYU 2 27 Apr 06:33:50 06:37:51 31° 297° (WNW) 06:41:48 437.375
PRISM 27 Apr 06:41:10 06:45:06 43° 68° (ENE) 06:49:04 437.425
MOZHAYETS 4 27 Apr 06:41:17 06:44:31 18° 273° (W) 06:47:39
CUBESAT XI-V 27 Apr 06:42:20 06:46:55 65° 72° (ENE) 06:51:30 437.345
Cosmos 2499 27 Apr 06:54:24 07:02:19 69° 265° (W) 07:09:36 435.465 / 435.565
AO-7 27 Apr 07:03:47 07:11:59 63° 299° (WNW) 07:20:08 29.400- 29.500
GONETS M04 27 Apr 07:05:27 07:10:49 17° 289° (WNW) 07:15:44
M-CUBED/EXP-1 PRIME 27 Apr 07:06:34 07:11:13 45° 256° (WSW) 07:15:50 437.505
CUTE-I 27 Apr 07:06:43 07:11:04 25° 91° (E) 07:15:29 437.470
CUSAT 1 27 Apr 07:13:06 07:17:16 15° 282° (WNW) 07:21:15 437.405
Cubesat XI-IV 27 Apr 07:16:36 07:21:15 30° 93° (E) 07:25:58 437.490
STRAND 1 27 Apr 07:20:50 07:25:57 78° 72° (ENE) 07:31:05 437.568
O/OREOS (USA 219) 27 Apr 07:33:52 07:38:09 40° 51° (NE) 07:42:23 437.305
AIST 2 27 Apr 07:40:01 07:43:13 20° 344° (NNW) 07:46:23 435.215
AUBIESAT-1 27 Apr 07:48:48 07:52:40 23° 263° (W) 07:56:25 437.475
JAS-2 27 Apr 07:51:08 07:56:16 24° 310° (NW) 08:00:51 435.910
BEESAT 3 27 Apr 08:07:47 08:10:17 15° 3° (N) 08:12:49 437.485
BEESAT 2 27 Apr 08:10:53 08:13:26 15° 2° (N) 08:16:00 435.950
PRISM 27 Apr 08:17:17 08:20:46 25° 267° (W) 08:24:11 437.425
BRITE-PL 27 Apr 08:19:07 08:21:05 12° 82° (E) 08:23:20 437.365/2234.400
CUBESAT XI-V 27 Apr 08:21:27 08:24:51 19° 272° (W) 08:28:09 437.345
PCSat 27 Apr 08:44:36 08:49:18 32° 114° (ESE) 08:54:05 145.827
CUTE-I 27 Apr 08:46:20 08:51:35 61° 291° (WNW) 08:56:49 437.470
Cosmos 2491 27 Apr 08:46:47 08:54:05 28° 54° (NE) 09:01:32 435.465 / 435.565
Cosmos 2499 27 Apr 08:49:22 08:53:58 16° 288° (WNW) 08:58:04 435.465 / 435.565
Cubesat XI-IV 27 Apr 08:56:29 09:01:39 51° 293° (WNW) 09:06:47 437.490
AO-7 27 Apr 08:57:17 09:03:25 23° 322° (NW) 09:09:22 29.400- 29.500
STRAND 1 27 Apr 09:02:13 09:05:50 19° 273° (W) 09:09:19 437.568
O/OREOS (USA 219) 27 Apr 09:13:27 09:17:32 33° 251° (WSW) 09:21:32 437.305
HO-68 27 Apr 09:13:32 09:19:04 24° 87° (E) 09:24:46 435.675
COMPASS 1 27 Apr 09:19:29 09:20:42 11° 83° (E) 09:22:07 437.405
AIST 2 27 Apr 09:20:24 09:23:14 17° 7° (N) 09:26:04 435.215
GOMX 1 27 Apr 09:35:37 09:40:17 35° 95° (E) 09:45:11 467.674
ANTELSAT 27 Apr 09:43:16 09:46:28 19° 57° (ENE) 09:49:50 437.575/2403.000
SEEDS 27 Apr 09:45:40 09:49:05 24° 91° (E) 09:52:33 437.485
BEESAT 3 27 Apr 09:46:04 09:49:34 26° 27° (NNE) 09:53:04 437.485
BEESAT 2 27 Apr 09:49:21 09:52:50 25° 26° (NNE) 09:56:18 435.950
BRITE-PL 27 Apr 09:55:30 10:00:31 69° 102° (ESE) 10:05:54 437.365/2234.400
CANX-2 27 Apr 09:56:17 10:00:17 37° 96° (E) 10:04:17 2200.000
AAUSAT CUBESAT 2 27 Apr 09:59:14 10:02:36 23° 91° (E) 10:05:59 437.432
QB50P2 27 Apr 10:00:09 10:02:16 14° 55° (NE) 10:04:32 145.880/145.840
YUBILEINY 27 Apr 10:02:14 10:08:18 22° 75° (ENE) 10:14:40 435.215
DOVE 4 27 Apr 10:04:59 10:09:50 43° 97° (E) 10:14:51 437.250
CUTE 1.7 + AOD 2 27 Apr 10:05:08 10:09:14 41° 97° (E) 10:13:17 437.475
NANOSAT C BR1 27 Apr 10:16:23 10:19:12 18° 58° (ENE) 10:22:08 145.865
POPSAT HIP 1 27 Apr 10:20:05 10:23:04 19° 59° (ENE) 10:26:09 437.405
PCSat 27 Apr 10:27:06 10:32:29 61° 315° (NW) 10:37:54 145.827
CUTE-I 27 Apr 10:27:57 10:30:46 14° 311° (NW) 10:33:24 437.470
CUBEBUG 2 27 Apr 10:28:02 10:31:47 23° 90° (E) 10:35:37 437.445
TIGRISAT 27 Apr 10:31:20 10:35:38 42° 67° (ENE) 10:40:05 435.000
UNISAT 6 27 Apr 10:36:14 10:40:38 47° 68° (ENE) 10:45:10 437.425
BUGSAT 1 27 Apr 10:36:47 10:39:36 19° 59° (ENE) 10:42:30 437.445
CINEMA 3 27 Apr 10:38:21 10:43:08 47° 97° (E) 10:48:01 145.822/145.860
Cubesat XI-IV 27 Apr 10:38:31 10:40:43 12° 314° (NW) 10:42:42 437.490
Cosmos 2491 27 Apr 10:43:27 10:52:21 90° 79° (E) 11:01:14 435.465 / 435.565
DUCHIFAT 1 27 Apr 10:48:43 10:52:27 32° 65° (ENE) 10:56:14 145.980
POLYITAN 1 27 Apr 10:49:32 10:53:20 33° 65° (ENE) 10:57:13 437.675
AO-7 27 Apr 10:50:32 10:53:13 12° 350° (N) 10:55:48 29.400- 29.500
UWE-3 27 Apr 10:50:46 10:54:53 29° 93° (E) 10:59:01 435.000/436.395/437.385
COMPASS 1 27 Apr 10:52:55 10:57:11 83° 104° (ESE) 11:01:23 437.405
FUNcube-1 27 Apr 10:56:23 11:00:16 27° 92° (E) 11:04:11 145.935
AIST 2 27 Apr 10:59:07 11:03:00 32° 31° (NNE) 11:06:51 435.215
DELFI C3 27 Apr 10:59:51 11:03:33 33° 96° (E) 11:07:15 145.870
UKube-1 27 Apr 11:00:04 11:02:45 16° 88° (E) 11:05:35 .
HO-68 27 Apr 11:00:33 11:07:48 87° 290° (WNW) 11:15:00 435.675
HUMSAT D 27 Apr 11:05:43 11:08:34 17° 87° (E) 11:11:30 437.325/437.525
QB50P1 27 Apr 11:06:52 11:10:54 46° 68° (ENE) 11:15:00 145.935-145.965
GOMX 1 27 Apr 11:13:43 11:18:29 43° 293° (WNW) 11:23:30 467.674
Oscar 11 27 Apr 11:17:58 11:22:20 65° 102° (ESE) 11:26:39 145.826/435.025
ANTELSAT 27 Apr 11:18:09 11:22:45 78° 257° (WSW) 11:27:28 437.575/2403.000
SEEDS 27 Apr 11:21:02 11:25:08 46° 291° (WNW) 11:29:11 437.485
ZACube-1 27 Apr 11:22:07 11:26:34 45° 98° (E) 11:30:59 437.345
BEESAT 3 27 Apr 11:23:54 11:28:03 82° 229° (SW) 11:32:07 437.485
BEESAT 2 27 Apr 11:27:17 11:31:28 89° 229° (SW) 11:35:35 435.950
VELOX 1 27 Apr 11:32:11 11:35:13 18° 89° (E) 11:38:22 145.980
CANX-2 27 Apr 11:32:22 11:36:10 30° 295° (WNW) 11:39:53 2200.000
QB50P2 27 Apr 11:33:19 11:37:33 83° 74° (ENE) 11:41:51 145.880/145.840
AAUSAT CUBESAT 2 27 Apr 11:34:25 11:38:28 46° 291° (WNW) 11:42:28 437.432
BRITE-PL 27 Apr 11:34:44 11:38:42 24° 300° (WNW) 11:42:48 437.365/2234.400
CUBEBUG 1 27 Apr 11:35:23 11:35:28 10° 82° (E) 11:35:47 437.445
50 SAT 27 Apr 11:39:50 11:42:58 22° 91° (E) 11:46:09 437.505
CUTE 1.7 + AOD 2 27 Apr 11:41:20 11:45:02 28° 296° (WNW) 11:48:38 437.475
DOVE 4 27 Apr 11:42:55 11:47:31 35° 295° (WNW) 11:52:14 437.250
AISAT 27 Apr 11:50:14 11:54:00 27° 93° (E) 11:57:50 437.250
NANOSAT C BR1 27 Apr 11:50:24 11:54:37 71° 257° (WSW) 11:58:52 145.865
DX 1 27 Apr 11:54:15 11:58:31 52° 100° (E) 12:02:48 434.975-435.025
POPSAT HIP 1 27 Apr 11:54:21 11:58:33 65° 258° (WSW) 12:02:48 437.405
YUBILEINY 27 Apr 11:55:04 12:03:54 80° 97° (E) 12:12:44 435.215
SO-50 27 Apr 11:56:10 11:59:57 25° 117° (ESE) 12:03:56 436.795
AIST 1 27 Apr 11:58:26 12:02:36 50° 74° (ENE) 12:06:47
CUBEBUG 2 27 Apr 12:04:09 12:08:51 59° 289° (WNW) 12:13:33 437.445
TIGRISAT 27 Apr 12:08:28 12:12:32 30° 267° (W) 12:16:39 435.000
BUGSAT 1 27 Apr 12:10:44 12:14:43 60° 258° (WSW) 12:18:45 437.445
PCSat 27 Apr 12:12:38 12:16:59 23° 339° (NNW) 12:21:18 145.827
UNISAT 6 27 Apr 12:13:43 12:17:39 27° 268° (W) 12:21:36 437.425
CINEMA 3 27 Apr 12:15:49 12:20:12 32° 296° (WNW) 12:24:36 145.822/145.860
DUCHIFAT 1 27 Apr 12:24:23 12:28:15 35° 264° (W) 12:32:09 145.980
POLYITAN 1 27 Apr 12:25:24 12:29:16 33° 264° (W) 12:33:09 437.675
UWE-3 27 Apr 12:27:05 12:31:35 44° 292° (WNW) 12:36:02 435.000/436.395/437.385
COMPASS 1 27 Apr 12:29:45 12:32:20 16° 303° (WNW) 12:34:48 437.405
FUNcube-1 27 Apr 12:32:22 12:36:49 47° 292° (WNW) 12:41:13 145.935
ESTCUBE 1 27 Apr 12:34:29 12:38:42 39° 97° (E) 12:42:56 437.505/2401.250
DELFI C3 27 Apr 12:35:04 12:38:40 30° 295° (WNW) 12:42:11 145.870
UKube-1 27 Apr 12:35:05 12:39:27 72° 288° (WNW) 12:43:46 .
AIST 2 27 Apr 12:37:39 12:41:52 61° 232° (SW) 12:46:01 435.215
AO-7 27 Apr 12:38:56 12:42:25 14° 19° (NNE) 12:46:06 29.400- 29.500
HUMSAT D 27 Apr 12:40:28 12:44:50 68° 288° (WNW) 12:49:07 437.325/437.525
Cosmos 2491 27 Apr 12:41:18 12:48:14 26° 282° (WNW) 12:54:54 435.465 / 435.565
QB50P1 27 Apr 12:43:34 12:47:01 23° 268° (W) 12:50:27 145.935-145.965
SPROUT 27 Apr 12:47:33 12:50:12 16° 87° (E) 12:53:01 437.525
HO-68 27 Apr 12:48:58 12:54:47 27° 311° (NW) 13:00:26 435.675
Oscar 11 27 Apr 12:54:55 12:58:08 20° 301° (WNW) 13:01:15 145.826/435.025
Gurwin Techsat 1B 27 Apr 12:55:22 12:57:39 13° 48° (NE) 13:00:07 435.225
ANTELSAT 27 Apr 12:58:32 13:00:28 12° 278° (W) 13:02:10 437.575/2403.000
ZACube-1 27 Apr 12:58:45 13:02:47 29° 297° (WNW) 13:06:44 437.345
BEESAT 3 27 Apr 13:03:20 13:05:27 14° 247° (WSW) 13:07:25 437.485
BEESAT 2 27 Apr 13:06:35 13:09:01 15° 246° (WSW) 13:11:18 435.950
VELOX 1 27 Apr 13:07:51 13:12:16 66° 289° (WNW) 13:16:41 145.980
CUBEBUG 1 27 Apr 13:08:22 13:12:45 72° 103° (ESE) 13:17:07 437.445
QB50P2 27 Apr 13:11:52 13:14:07 14° 274° (W) 13:16:13 145.880/145.840
Oscar 19 27 Apr 13:13:48 13:18:37 42° 65° (ENE) 13:23:31 437.125/150
50 SAT 27 Apr 13:14:06 13:18:02 47° 291° (WNW) 13:21:54 437.505
AISAT 27 Apr 13:26:32 13:30:49 45° 292° (WNW) 13:35:03 437.250
Cosmos 2504 27 Apr 13:28:18 13:36:15 40° 86° (E) 13:44:08 435.465 / 435.565
DX 1 27 Apr 13:30:59 13:34:32 24° 299° (WNW) 13:38:01 434.975-435.025
SO-50 27 Apr 13:35:23 13:40:07 70° 317° (NW) 13:45:02 436.795
ISS 27 Apr 13:36:34 13:39:34 35° 156° (SSE) 13:42:36 145.825
AIST 1 27 Apr 13:36:44 13:39:58 21° 273° (W) 13:43:06
CUBEBUG 2 27 Apr 13:42:45 13:44:40 12° 309° (NW) 13:46:27 437.445
TISAT 1 27 Apr 13:45:36 13:49:40 42° 98° (E) 13:53:44 437.305
ITAMSAT 1 27 Apr 13:52:30 13:57:04 33° 61° (ENE) 14:01:41 435.822/435.867
YUBILEINY 27 Apr 13:54:02 14:01:49 32° 303° (WNW) 14:09:27 435.215
PCSat 27 Apr 13:58:36 14:02:17 18° 4° (N) 14:05:58 145.827
RS-15 27 Apr 14:10:51 14:19:35 31° 106° (ESE) 14:28:48 29.354- 29.394
ESTCUBE 1 27 Apr 14:11:32 14:15:31 31° 296° (WNW) 14:19:27 437.505/2401.250
UKube-1 27 Apr 14:12:53 14:14:53 13° 307° (NW) 14:16:45 .
HUMSAT D 27 Apr 14:18:02 14:19:51 12° 307° (NW) 14:21:29 437.325/437.525
SPROUT 27 Apr 14:22:31 14:26:51 72° 287° (WNW) 14:31:10 437.525
AO-7 27 Apr 14:25:54 14:32:40 30° 45° (NE) 14:39:34 29.400- 29.500
HORYU 2 27 Apr 14:27:04 14:29:21 14° 53° (NE) 14:31:46 437.375
Gurwin Techsat 1B 27 Apr 14:31:29 14:36:39 55° 68° (ENE) 14:41:52 435.225
ITUPSAT 1 27 Apr 14:38:44 14:42:47 27° 93° (E) 14:46:53 437.325
JAS-2 27 Apr 14:38:51 14:44:44 25° 52° (NE) 14:50:28 435.910
CUBEBUG 1 27 Apr 14:45:37 14:48:41 19° 302° (WNW) 14:51:41 437.445
VELOX 1 27 Apr 14:46:13 14:48:05 12° 308° (NW) 14:49:49 145.980
Oscar 19 27 Apr 14:53:17 14:58:04 36° 264° (W) 15:02:52 437.125/150
BEESAT 27 Apr 15:08:09 15:12:48 49° 100° (E) 15:17:25 436.000
SWISSCUBE 27 Apr 15:10:57 15:15:39 55° 101° (E) 15:20:20 437.505
ISS 27 Apr 15:12:27 15:15:43 73° 175° (S) 15:18:59 145.825
SO-50 27 Apr 15:17:22 15:21:28 26° 340° (NNW) 15:25:38 436.795
Cosmos 2504 27 Apr 15:20:35 15:29:25 63° 287° (WNW) 15:37:59 435.465 / 435.565
TISAT 1 27 Apr 15:21:41 15:25:19 27° 297° (WNW) 15:28:54 437.305
STARS 27 Apr 15:27:33 15:29:09 12° 84° (E) 15:30:59 437.465
ITAMSAT 1 27 Apr 15:31:27 15:36:28 47° 261° (W) 15:41:29 435.822/435.867
PCSat 27 Apr 15:42:40 15:47:24 30° 29° (NNE) 15:52:11 145.827
SPROUT 27 Apr 16:00:17 16:02:14 13° 306° (NW) 16:04:03 437.525
YUBILEINY 27 Apr 16:00:24 16:02:31 11° 333° (NNW) 16:04:19 435.215
HORYU 2 27 Apr 16:00:49 16:05:19 76° 73° (ENE) 16:09:51 437.375
KKS-1 27 Apr 16:11:47 16:16:05 42° 98° (E) 16:20:22 437.445
Gurwin Techsat 1B 27 Apr 16:12:25 16:16:59 28° 268° (W) 16:21:30 435.225
AO-7 27 Apr 16:16:18 16:24:36 86° 68° (ENE) 16:32:58 29.400- 29.500
ITUPSAT 1 27 Apr 16:16:20 16:20:56 48° 293° (WNW) 16:25:30 437.325
GONETS M04 27 Apr 16:19:32 16:27:01 34° 82° (E) 16:34:43
RS-15 27 Apr 16:19:42 16:30:38 87° 130° (SE) 16:41:57 29.354- 29.394
JAS-2 27 Apr 16:21:06 16:28:57 79° 71° (ENE) 16:36:21 435.910
BEESAT 27 Apr 16:46:22 16:50:28 29° 299° (WNW) 16:54:31 436.000
ISS 27 Apr 16:48:45 16:51:58 56° 195° (SSW) 16:55:11 145.825
SWISSCUBE 27 Apr 16:49:18 16:53:15 26° 300° (WNW) 16:57:08 437.505
MOZHAYETS 4 27 Apr 16:53:25 16:54:53 12° 82° (E) 16:56:33
CUTE-I 27 Apr 16:57:14 17:00:21 16° 51° (NE) 17:03:35 437.470
SO-50 27 Apr 16:59:46 17:03:28 21° 4° (N) 17:07:13 436.795
STARS 27 Apr 17:01:57 17:06:26 81° 104° (ESE) 17:10:54 437.465
CUSAT 1 27 Apr 17:02:42 17:05:47 20° 81° (E) 17:09:39 437.405
Cubesat XI-IV 27 Apr 17:06:52 17:10:24 19° 53° (NE) 17:14:05 437.490
Cosmos 2504 27 Apr 17:18:36 17:24:54 20° 313° (NW) 17:30:48 435.465 / 435.565
PCSat 27 Apr 17:26:01 17:31:29 87° 233° (SW) 17:36:56 145.827
HORYU 2 27 Apr 17:39:38 17:42:34 16° 273° (W) 17:45:22 437.375
Cosmos 2499 27 Apr 17:46:18 17:52:33 23° 77° (ENE) 17:58:54 435.465 / 435.565
KKS-1 27 Apr 17:48:41 17:52:37 29° 297° (WNW) 17:56:28 437.445
DANDE 27 Apr 17:53:18 17:56:53 37° 90° (E) 18:01:39 436.750
ITUPSAT 1 27 Apr 17:57:05 17:57:50 10° 313° (NW) 17:58:25 437.325
HO-68 27 Apr 18:06:12 18:08:56 13° 31° (NNE) 18:11:53 435.675
JAS-2 27 Apr 18:07:57 18:14:41 30° 272° (W) 18:20:59 435.910
AO-7 27 Apr 18:11:36 18:18:31 28° 271° (W) 18:25:16 29.400- 29.500
GONETS M04 27 Apr 18:14:31 18:23:19 71° 285° (WNW) 18:32:12
ISS 27 Apr 18:25:27 18:27:54 19° 214° (SSW) 18:30:19 145.825
MOZHAYETS 4 27 Apr 18:28:24 18:33:02 76° 103° (ESE) 18:37:37
RS-15 27 Apr 18:33:34 18:44:14 51° 341° (NNW) 18:55:20 29.354- 29.394
CUTE-I 27 Apr 18:34:20 18:39:38 71° 71° (ENE) 18:44:58 437.470
CUBESAT XI-V 27 Apr 18:35:27 18:36:30 11° 82° (E) 18:37:48 437.345
STARS 27 Apr 18:39:24 18:42:23 18° 304° (WNW) 18:45:16 437.465
SO-50 27 Apr 18:40:48 18:45:19 34° 28° (NNE) 18:49:52 436.795
CUSAT 1 27 Apr 18:43:32 18:47:43 62° 290° (WNW) 18:53:24 437.405
Cubesat XI-IV 27 Apr 18:44:31 18:49:51 84° 74° (ENE) 18:55:14 437.490
PCSat 27 Apr 19:10:30 19:14:15 19° 252° (WSW) 19:17:49 145.827
GOMX 1 27 Apr 19:15:42 19:17:06 12° 50° (NE) 19:18:42 467.674
CANX-2 27 Apr 19:23:13 19:23:50 10° 52° (NE) 19:24:38 2200.000
AUBIESAT-1 27 Apr 19:24:21 19:27:09 18° 94° (E) 19:29:54 437.475
STRAND 1 27 Apr 19:26:20 19:29:34 17° 86° (E) 19:32:58 437.568
CUTE 1.7 + AOD 2 27 Apr 19:31:21 19:32:37 11° 53° (NE) 19:34:01 437.475
Cosmos 2499 27 Apr 19:35:50 19:44:42 82° 98° (E) 19:53:11 435.465 / 435.565
BRITE-PL 27 Apr 19:35:56 19:39:08 21° 59° (ENE) 19:42:33 437.365/2234.400
DANDE 27 Apr 19:36:40 19:40:19 30° 301° (WNW) 19:45:01 436.750
DOVE 4 27 Apr 19:41:54 19:44:07 14° 53° (NE) 19:46:33 437.250
VERMONT LUNAR 27 Apr 19:45:06 19:45:46 10° 186° (S) 19:46:25 437.305
